Date String (YYYY-MM-DD hh:mm:ss) UTC,Instrument flags,Ambient pressure (hPa),Sample flow (lpm),Bypass flow (lpm),Sample temperature (°C),Ambient temperature (°C),ASC tube jacket temperature (°C),LED temperature (°C),Box temperature (°C),Sample RH (%),Span deviation,Mass concentration (μg/m³),Mass concentration (μg/m³),Mass concentration (μg/m³)
DateTimeUTC,F1_M11,P_M11,Q1_M11,Q2_M11,T1_M11,T2_M11,T3_M11,T4_M11,T5_M11,U1_M11,ZSPAN_M11,X2_M11,X0_M11,X1_M11
2021-10-11 00:00:00,,0821.1,5.02,0.00,30.1,29.2,00.0,39.1,31.9,09.7,0000.0,0002.48,0003.44,0002.27
2021-10-11 00:01:00,,0821.1,4.99,0.00,30.1,29.3,00.0,39.1,31.9,09.7,0000.0,0002.52,0003.27,0002.30
2021-10-11 00:02:00,,0821.2,4.99,0.00,30.1,29.3,00.0,39.1,31.8,09.7,0000.0,0002.55,0003.23,0002.32
2021-10-11 00:03:00,,0821.1,5.02,0.00,30.1,29.3,00.0,39.1,31.9,09.7,0000.0,0002.58,0003.27,0002.34
2021-10-11 00:04:00,,0821.2,4.99,0.00,30.1,29.3,00.0,39.2,31.9,09.8,0000.0,0002.61,0003.30,0002.37
2021-10-11 00:05:00,,0821.1,5.01,0.00,30.2,29.3,00.0,39.2,31.9,09.8,0000.0,0002.67,0003.36,0002.40
2021-10-11 00:06:00,,0821.2,5.00,0.00,30.2,29.3,00.0,39.2,31.9,09.8,0000.0,0002.66,0003.23,0002.42
2021-10-11 00:07:00,,0821.1,4.99,0.00,30.2,29.3,00.0,39.2,31.9,09.8,0000.0,0002.66,0003.19,0002.43
2021-10-11 00:08:00,,0821.1,5.00,0.00,30.2,29.3,00.0,39.2,31.9,09.7,0000.0,0002.70,0003.24,0002.46
2021-10-11 00:09:00,,0821.1,5.00,0.00,30.2,29.3,00.0,39.2,31.9,09.6,0000.0,0002.71,0003.18,0002.48
2021-10-11 00:10:00,,0821.1,5.01,0.00,30.2,28.5,00.0,39.2,31.7,09.6,0000.0,0002.73,0003.20,0002.49
2021-10-11 00:11:00,,0821.1,4.99,0.00,30.0,26.4,00.0,39.2,31.2,09.7,0000.0,0002.73,0003.16,0002.49
2021-10-11 00:12:00,,0821.1,5.00,0.00,29.9,26.1,00.0,39.1,31.1,09.8,0000.0,0002.74,0003.14,0002.50
2021-10-11 00:13:00,,0821.1,5.01,0.00,29.8,26.5,00.0,39.1,31.1,09.8,0000.0,0002.73,0003.12,0002.49
2021-10-11 00:14:00,,0821.1,5.00,0.00,29.7,26.9,00.0,39.0,31.2,09.8,0000.0,0002.74,0003.16,0002.49
2021-10-11 00:15:00,,0821.2,4.99,0.00,29.7,27.3,00.0,39.0,31.3,09.9,0000.0,0002.76,0003.23,0002.49
2021-10-11 00:16:00,,0821.1,5.01,0.00,29.7,27.6,00.0,39.0,31.2,09.9,0000.0,0002.71,0003.10,0002.50
2021-10-11 00:17:00,,0821.1,4.99,0.00,29.7,27.8,00.0,38.9,31.3,09.9,0000.0,0002.71,0003.07,0002.52
2021-10-11 00:18:00,,0821.1,5.00,0.00,29.7,28.0,00.0,38.9,31.3,09.9,0000.0,0002.71,0003.06,0002.52
2021-10-11 00:19:00,,0821.2,5.00,0.00,29.7,28.2,00.0,38.9,31.3,09.9,0000.0,0002.70,0003.05,0002.52
2021-10-11 00:20:00,,0821.2,5.00,0.00,29.7,28.3,00.0,38.9,31.4,10.0,0000.0,0002.74,0003.12,0002.53
2021-10-11 00:21:00,,0821.2,4.99,0.00,29.7,28.4,00.0,38.9,31.4,09.9,0000.0,0002.76,0003.17,0002.54
2021-10-11 00:22:00,,0821.2,5.00,0.00,29.7,28.5,00.0,38.9,31.4,10.0,0000.0,0002.76,0003.16,0002.55
2021-10-11 00:23:00,,0821.1,5.00,0.00,29.7,28.5,00.0,38.9,31.4,09.9,0000.0,0002.74,0003.11,0002.56
2021-10-11 00:24:00,,0821.2,5.00,0.00,29.7,28.6,00.0,38.9,31.4,09.9,0000.0,0002.78,0003.58,0002.57
2021-10-11 00:25:00,,0821.2,5.00,0.00,29.7,28.6,00.0,38.9,31.4,09.9,0000.0,0002.78,0003.60,0002.59
2021-10-11 00:26:00,,0821.2,5.01,0.00,29.8,28.7,00.0,38.9,31.4,09.9,0000.0,0002.79,0003.63,0002.61
2021-10-11 00:27:00,,0821.2,4.99,0.00,29.8,28.7,00.0,38.9,31.5,09.9,0000.0,0002.82,0003.81,0002.62
2021-10-11 00:28:00,,0821.2,5.00,0.00,29.8,28.7,00.0,38.9,31.5,09.9,0000.0,0002.83,0003.84,0002.62
2021-10-11 00:29:00,,0821.2,5.01,0.00,29.8,28.8,00.0,38.9,31.5,09.9,0000.0,0002.85,0003.88,0002.63
2021-10-11 00:30:00,,0821.3,5.00,0.00,29.8,28.8,00.0,38.9,31.6,09.9,0000.0,0002.86,0003.90,0002.64
2021-10-11 00:31:00,,0821.3,4.99,0.00,29.8,28.8,00.0,38.9,31.6,09.8,0000.0,0002.85,0003.89,0002.65
2021-10-11 00:32:00,,0821.3,5.01,0.00,29.8,28.9,00.0,38.9,31.6,09.8,0000.0,0002.85,0003.92,0002.66
2021-10-11 00:33:00,,0821.3,4.99,0.00,29.9,28.9,00.0,38.9,31.6,09.8,0000.0,0002.88,0004.05,0002.67
2021-10-11 00:34:00,,0821.3,5.00,0.00,29.9,28.9,00.0,38.9,31.6,09.8,0000.0,0002.90,0004.09,0002.67
2021-10-11 00:35:00,,0821.3,5.00,0.00,29.9,28.9,00.0,39.0,31.6,09.7,0000.0,0002.88,0003.70,0002.68
2021-10-11 00:36:00,,0821.3,4.99,0.00,29.9,28.9,00.0,39.0,31.6,09.7,0000.0,0002.88,0003.65,0002.68
2021-10-11 00:37:00,,0821.3,5.00,0.00,29.9,28.9,00.0,39.0,31.6,09.7,0000.0,0002.88,0003.68,0002.68
2021-10-11 00:38:00,,0821.3,5.01,0.00,29.9,28.9,00.0,39.0,31.6,09.7,0000.0,0002.87,0003.82,0002.69
2021-10-11 00:39:00,,0821.3,4.99,0.00,29.9,28.9,00.0,39.0,31.7,09.7,0000.0,0002.87,0003.80,0002.71
2021-10-11 00:40:00,,0821.3,4.99,0.00,29.9,29.0,00.0,39.0,31.7,09.7,0000.0,0002.87,0003.80,0002.71
2021-10-11 00:41:00,,0821.3,5.00,0.00,29.9,29.0,00.0,39.0,31.6,09.6,0000.0,0002.88,0003.82,0002.72
2021-10-11 00:42:00,,0821.3,5.01,0.00,29.9,29.0,00.0,39.0,31.7,09.6,0000.0,0002.89,0003.84,0002.73
2021-10-11 00:43:00,,0821.3,5.00,0.00,29.9,29.0,00.0,39.0,31.7,09.6,0000.0,0002.91,0003.85,0002.74
2021-10-11 00:44:00,,0821.3,5.00,0.00,29.9,29.0,00.0,39.0,31.6,09.6,0000.0,0002.89,0004.74,0002.74
2021-10-11 00:45:00,,0821.3,5.01,0.00,30.0,29.0,00.0,39.0,31.6,09.6,0000.0,0002.90,0005.44,0002.74
2021-10-11 00:46:00,,0821.3,4.99,0.00,30.0,29.0,00.0,39.0,31.6,09.6,0000.0,0002.92,0005.54,0002.73
2021-10-11 00:47:00,,0821.4,5.00,0.00,29.9,29.0,00.0,39.0,31.6,09.7,0000.0,0002.94,0005.53,0002.74
2021-10-11 00:48:00,,0821.4,5.01,0.00,29.9,29.0,00.0,39.1,31.6,09.7,0000.0,0002.95,0005.45,0002.73
2021-10-11 00:49:00,,0821.4,5.00,0.00,30.0,29.0,00.0,39.0,31.6,09.6,0000.0,0002.96,0005.19,0002.73
2021-10-11 00:50:00,,0821.4,5.00,0.00,30.0,29.0,00.0,39.0,31.7,09.7,0000.0,0002.97,0005.19,0002.74
2021-10-11 00:51:00,,0821.4,5.01,0.00,30.0,29.0,00.0,39.1,31.7,09.7,0000.0,0002.97,0005.17,0002.75
2021-10-11 00:52:00,,0821.4,4.99,0.00,30.0,29.0,00.0,39.0,31.7,09.7,0000.0,0002.97,0005.17,0002.76
2021-10-11 00:53:00,,0821.4,5.00,0.00,30.0,29.0,00.0,39.1,31.7,09.7,0000.0,0002.94,0005.54,0002.74
2021-10-11 00:54:00,,0821.4,5.01,0.00,30.0,28.9,00.0,39.1,31.6,09.6,0000.0,0002.92,0005.65,0002.75
2021-10-11 00:55:00,,0821.4,5.00,0.00,30.0,28.9,00.0,39.1,31.7,09.6,0000.0,0002.97,0005.22,0002.76
2021-10-11 00:56:00,,0821.4,5.00,0.00,30.0,28.9,00.0,39.1,31.6,09.6,0000.0,0002.96,0004.23,0002.76
2021-10-11 00:57:00,,0821.4,4.99,0.00,30.0,28.9,00.0,39.1,31.6,09.6,0000.0,0002.99,0004.85,0002.79
2021-10-11 00:58:00,,0821.5,5.01,0.00,30.0,28.9,00.0,39.1,31.7,09.6,0000.0,0003.02,0005.12,0002.81
2021-10-11 00:59:00,,0821.6,4.99,0.00,30.0,28.9,00.0,39.1,31.6,09.6,0000.0,0003.02,0005.12,0002.82
